^^
Datos históricos de la estación: Murcia-Puente Tocinos
Diario Informe para Septiembre 2, 2019 Unidades:  Métrico    Inglés   Ambas
Diario Semanal Mensual Anual Configurable
  Máximo: Mínimo: Media:
Temperatura: 28.8 °C 22.4 °C 25.4 °C
Punto de rocio: 22.4 °C 17.7 °C 20.4 °C
Humedad: 87% 60% 74%
Velocidad viento: 20.9km/h 0.0km/h 8.3km/h
Racha viento: 38.6km/h - -
Viento- - East
Presión: 1017.8 hPa 1011.9 hPa -
Precipitación: 3.8 mm    
Historical Graphs
 
 
Tabla de datos para Septiembre 2, 2019
Hora Temperatura Punto de rocio Presión Viento Velocidad viento Racha viento Humedad Intensidad lluvia(por hora) Nubes
00:00 26.1 °C 17.7 °C 1011.9 hPa North 4.8 km/h 9.7 km/h 60% 0.0 mm CLR
00:05 26.0 °C 17.9 °C 1012.0 hPa North 4.8 km/h 8.0 km/h 61% 0.0 mm CLR
00:10 25.9 °C 17.8 °C 1012.0 hPa North 3.2 km/h 8.0 km/h 61% 0.0 mm CLR
00:15 25.9 °C 18.1 °C 1012.0 hPa North 3.2 km/h 9.7 km/h 62% 0.0 mm CLR
00:20 25.8 °C 18.0 °C 1012.0 hPa NNE 4.8 km/h 11.3 km/h 62% 0.0 mm CLR
00:25 25.7 °C 18.1 °C 1012.0 hPa NNE 4.8 km/h 12.9 km/h 63% 0.0 mm CLR
00:30 25.6 °C 18.3 °C 1012.0 hPa NE 8.0 km/h 11.3 km/h 64% 0.0 mm CLR
00:35 25.4 °C 18.3 °C 1012.0 hPa NE 8.0 km/h 11.3 km/h 65% 0.0 mm CLR
00:40 25.3 °C 18.2 °C 1012.0 hPa ENE 8.0 km/h 9.7 km/h 65% 0.0 mm CLR
00:45 25.2 °C 18.1 °C 1012.0 hPa East 8.0 km/h 9.7 km/h 65% 0.0 mm CLR
00:50 24.9 °C 17.9 °C 1012.0 hPa East 4.8 km/h 8.0 km/h 65% 0.0 mm CLR
00:55 24.9 °C 18.1 °C 1012.0 hPa ESE 4.8 km/h 6.4 km/h 66% 0.0 mm CLR
01:00 24.8 °C 18.1 °C 1012.0 hPa SE 3.2 km/h 4.8 km/h 66% 0.0 mm CLR
01:05 24.8 °C 18.0 °C 1012.1 hPa ESE 3.2 km/h 8.0 km/h 66% 0.0 mm CLR
01:10 24.8 °C 18.5 °C 1012.1 hPa NNE 3.2 km/h 8.0 km/h 68% 0.0 mm CLR
01:15 24.7 °C 18.6 °C 1012.1 hPa North 3.2 km/h 9.7 km/h 69% 0.0 mm CLR
01:20 24.6 °C 19.0 °C 1012.1 hPa NNE 4.8 km/h 12.9 km/h 71% 0.0 mm CLR
01:25 24.5 °C 18.9 °C 1012.1 hPa NE 4.8 km/h 11.3 km/h 71% 0.0 mm CLR
01:30 24.4 °C 18.8 °C 1012.1 hPa NE 8.0 km/h 14.5 km/h 71% 0.0 mm CLR
01:35 24.3 °C 18.7 °C 1012.2 hPa ENE 6.9 km/h 7.4 km/h 71% 0.0 mm CLR
01:40 24.3 °C 18.7 °C 1012.2 hPa NE 4.8 km/h 8.0 km/h 71% 0.0 mm CLR
01:45 24.3 °C 18.5 °C 1012.2 hPa ENE 4.8 km/h 9.7 km/h 70% 0.0 mm CLR
01:50 24.3 °C 18.5 °C 1012.3 hPa East 4.8 km/h 8.0 km/h 70% 0.0 mm CLR
01:55 24.3 °C 18.2 °C 1012.3 hPa ENE 4.8 km/h 4.8 km/h 69% 0.0 mm CLR
02:00 24.2 °C 18.2 °C 1012.3 hPa NE 3.2 km/h 6.4 km/h 69% 0.0 mm CLR
02:05 24.2 °C 18.2 °C 1012.3 hPa NNE 3.2 km/h 4.8 km/h 69% 0.0 mm CLR
02:10 24.3 °C 18.5 °C 1012.3 hPa North 3.2 km/h 8.0 km/h 70% 0.0 mm CLR
02:15 24.2 °C 18.4 °C 1012.3 hPa NNW 3.2 km/h 8.0 km/h 70% 0.0 mm CLR
02:20 24.2 °C 18.6 °C 1012.3 hPa NNW 3.2 km/h 6.4 km/h 71% 0.0 mm CLR
02:25 24.1 °C 18.7 °C 1012.3 hPa NNW 3.2 km/h 4.8 km/h 72% 0.0 mm CLR
02:30 24.0 °C 18.7 °C 1012.3 hPa NNW 3.2 km/h 6.4 km/h 72% 0.0 mm CLR
02:35 23.9 °C 18.6 °C 1012.3 hPa NNW 3.2 km/h 3.2 km/h 72% 0.0 mm CLR
02:40 23.9 °C 18.6 °C 1012.3 hPa NNW 1.6 km/h 6.4 km/h 72% 0.0 mm CLR
02:45 23.9 °C 18.8 °C 1012.3 hPa NNW 1.6 km/h 6.4 km/h 73% 0.0 mm CLR
02:50 23.9 °C 18.8 °C 1012.3 hPa NNW 3.2 km/h 3.2 km/h 73% 0.0 mm CLR
02:55 23.9 °C 18.6 °C 1012.3 hPa NE 3.2 km/h 8.0 km/h 72% 0.0 mm CLR
03:00 23.8 °C 18.5 °C 1012.3 hPa ESE 1.6 km/h 3.2 km/h 72% 0.0 mm CLR
03:05 23.8 °C 18.4 °C 1012.3 hPa ESE 1.6 km/h 4.8 km/h 72% 0.0 mm CLR
03:10 23.8 °C 18.7 °C 1012.3 hPa ESE 1.6 km/h 4.8 km/h 73% 0.0 mm CLR
03:15 23.8 °C 18.9 °C 1012.3 hPa ENE 1.6 km/h 3.2 km/h 74% 0.0 mm CLR
03:20 23.8 °C 18.9 °C 1012.3 hPa NNE 1.6 km/h 4.8 km/h 74% 0.0 mm CLR
03:25 23.8 °C 18.9 °C 1012.3 hPa NNE 1.6 km/h 4.8 km/h 74% 0.0 mm CLR
03:30 23.8 °C 18.8 °C 1012.3 hPa Calm     74% 0.0 mm CLR
03:35 23.7 °C 18.8 °C 1012.3 hPa Calm   3.2 km/h 74% 0.0 mm CLR
03:40 23.7 °C 18.9 °C 1012.3 hPa NNE 1.6 km/h 6.4 km/h 75% 0.0 mm CLR
03:45 23.5 °C 18.8 °C 1012.3 hPa NNE 1.6 km/h 6.4 km/h 75% 0.0 mm CLR
03:50 23.4 °C 18.7 °C 1012.5 hPa NNE 3.2 km/h 4.8 km/h 75% 0.0 mm CLR
03:55 23.3 °C 18.6 °C 1012.5 hPa NE 3.2 km/h 8.0 km/h 75% 0.0 mm CLR
04:00 23.3 °C 18.4 °C 1012.5 hPa NE 3.2 km/h 8.0 km/h 74% 0.0 mm CLR
04:05 23.3 °C 18.2 °C 1012.5 hPa NE 3.2 km/h 8.0 km/h 73% 0.0 mm CLR
04:10 23.3 °C 18.0 °C 1012.5 hPa East 3.2 km/h 8.0 km/h 72% 0.0 mm CLR
04:15 23.4 °C 18.3 °C 1012.5 hPa ESE 3.2 km/h 8.0 km/h 73% 0.0 mm CLR
04:20 23.4 °C 18.4 °C 1012.6 hPa NE 3.2 km/h 8.0 km/h 74% 0.0 mm CLR
04:25 23.3 °C 18.6 °C 1012.6 hPa NNE 3.2 km/h 8.0 km/h 75% 0.0 mm CLR
04:30 23.2 °C 18.7 °C 1012.6 hPa NE 3.2 km/h 9.7 km/h 76% 0.0 mm CLR
04:35 23.2 °C 19.2 °C 1012.7 hPa NE 3.2 km/h 9.7 km/h 78% 0.0 mm CLR
04:40 23.2 °C 19.3 °C 1012.7 hPa NE 4.8 km/h 9.7 km/h 79% 0.0 mm CLR
04:45 23.1 °C 18.8 °C 1012.7 hPa NE 4.8 km/h 9.7 km/h 77% 0.0 mm CLR
04:50 23.1 °C 18.6 °C 1012.8 hPa NE 4.8 km/h 9.7 km/h 76% 0.0 mm CLR
04:55 23.1 °C 18.6 °C 1012.8 hPa NE 5.8 km/h 7.4 km/h 76% 0.0 mm CLR
05:00 23.0 °C 18.7 °C 1012.8 hPa NE 4.8 km/h 9.7 km/h 77% 0.0 mm CLR
05:05 22.9 °C 18.8 °C 1013.1 hPa NE 5.8 km/h 8.7 km/h 78% 0.0 mm CLR
05:10 22.8 °C 18.9 °C 1013.1 hPa NE 4.8 km/h 9.7 km/h 79% 0.0 mm CLR
05:15 22.8 °C 19.2 °C 1013.1 hPa NNE 4.8 km/h 11.3 km/h 80% 0.0 mm CLR
05:20 22.9 °C 19.3 °C 1013.2 hPa NNE 4.8 km/h 9.7 km/h 80% 0.0 mm CLR
05:25 22.9 °C 19.4 °C 1013.2 hPa NNE 4.8 km/h 9.7 km/h 81% 0.0 mm CLR
05:30 22.9 °C 19.4 °C 1013.2 hPa NNE 3.2 km/h 8.0 km/h 81% 0.0 mm CLR
05:35 23.0 °C 19.6 °C 1013.2 hPa NNE 3.2 km/h 8.0 km/h 81% 0.0 mm CLR
05:40 23.0 °C 19.6 °C 1013.2 hPa NNE 4.8 km/h 8.0 km/h 81% 0.0 mm CLR
05:45 23.0 °C 19.7 °C 1013.2 hPa NNE 4.8 km/h 8.0 km/h 82% 0.0 mm CLR
05:50 23.0 °C 19.8 °C 1013.2 hPa NE 3.2 km/h 9.7 km/h 82% 0.0 mm CLR
05:55 22.9 °C 19.9 °C 1013.2 hPa NE 3.2 km/h 9.7 km/h 83% 0.0 mm CLR
06:00 22.9 °C 19.8 °C 1013.2 hPa NE 8.0 km/h 11.3 km/h 83% 0.0 mm CLR
06:05 22.8 °C 19.9 °C 1013.3 hPa NE 8.0 km/h 11.3 km/h 84% 0.0 mm CLR
06:10 22.8 °C 19.9 °C 1013.3 hPa NE 8.0 km/h 9.7 km/h 84% 0.0 mm CLR
06:15 22.7 °C 19.8 °C 1013.3 hPa NE 8.0 km/h 8.0 km/h 84% 0.0 mm CLR
06:20 22.6 °C 19.9 °C 1013.4 hPa NE 3.2 km/h 8.0 km/h 85% 0.0 mm CLR
06:25 22.6 °C 19.9 °C 1013.4 hPa NE 3.2 km/h 9.7 km/h 85% 0.0 mm CLR
06:30 22.4 °C 19.8 °C 1013.4 hPa NE 4.8 km/h 11.3 km/h 85% 0.0 mm CLR
06:35 22.4 °C 19.8 °C 1013.6 hPa NE 4.8 km/h 11.3 km/h 85% 0.0 mm CLR
06:40 22.4 °C 19.8 °C 1013.6 hPa ENE 8.0 km/h 11.3 km/h 85% 0.0 mm CLR
06:45 22.6 °C 19.9 °C 1013.6 hPa East 8.0 km/h 9.7 km/h 85% 0.0 mm CLR
06:50 22.5 °C 19.7 °C 1013.7 hPa East 4.8 km/h 9.7 km/h 84% 0.0 mm CLR
06:55 22.5 °C 19.8 °C 1013.7 hPa East 4.8 km/h 9.7 km/h 85% 0.0 mm CLR
07:00 22.6 °C 20.1 °C 1013.7 hPa ESE 8.0 km/h 9.7 km/h 86% 0.0 mm CLR
07:05 22.7 °C 20.2 °C 1013.9 hPa East 8.0 km/h 9.7 km/h 86% 0.0 mm CLR
07:10 22.8 °C 20.3 °C 1013.9 hPa East 4.8 km/h 9.7 km/h 86% 0.0 mm CLR
07:15 22.9 °C 20.6 °C 1013.9 hPa East 4.8 km/h 11.3 km/h 87% 0.0 mm CLR
07:20 23.1 °C 20.6 °C 1014.0 hPa East 8.0 km/h 9.7 km/h 86% 0.0 mm CLR
07:25 23.2 °C 20.7 °C 1014.0 hPa East 8.0 km/h 11.3 km/h 86% 0.0 mm CLR
07:30 23.3 °C 20.7 °C 1014.0 hPa ESE 8.0 km/h 11.3 km/h 85% 0.0 mm CLR
07:35 23.4 °C 20.9 °C 1014.1 hPa ENE 6.4 km/h 7.4 km/h 86% 0.0 mm CLR
07:40 23.5 °C 21.1 °C 1014.1 hPa East 4.8 km/h 9.7 km/h 86% 0.0 mm
07:45 23.6 °C 21.1 °C 1014.1 hPa East 4.8 km/h 8.0 km/h 86% 0.0 mm
07:50 23.7 °C 21.2 °C 1014.2 hPa East 3.2 km/h 8.0 km/h 86% 0.0 mm
07:55 23.7 °C 21.2 °C 1014.2 hPa East 3.2 km/h 8.0 km/h 86% 0.0 mm
08:00 23.8 °C 21.3 °C 1014.2 hPa East 3.2 km/h 4.8 km/h 86% 0.0 mm
08:05 23.8 °C 21.3 °C 1014.3 hPa East 3.2 km/h 8.0 km/h 86% 0.0 mm
08:10 23.9 °C 21.4 °C 1014.3 hPa ENE 3.2 km/h 3.2 km/h 86% 0.0 mm
08:15 23.9 °C 21.4 °C 1014.3 hPa ENE 3.2 km/h 4.8 km/h 86% 0.0 mm
08:20 24.0 °C 21.5 °C 1014.6 hPa NE 1.6 km/h 6.4 km/h 86% 0.0 mm
08:25 24.1 °C 21.6 °C 1014.6 hPa NNE 1.6 km/h 4.8 km/h 86% 0.0 mm
08:30 24.1 °C 21.6 °C 1014.6 hPa North 2.3 km/h 5.6 km/h 86% 0.0 mm CLR
08:35 24.1 °C 21.6 °C 1014.8 hPa North 1.6 km/h 8.0 km/h 86% 0.0 mm
08:40 24.1 °C 21.4 °C 1014.8 hPa NW 3.2 km/h 6.4 km/h 85% 0.0 mm
08:45 24.1 °C 21.6 °C 1014.8 hPa NW 3.2 km/h 8.0 km/h 86% 0.0 mm
08:50 24.0 °C 21.3 °C 1015.0 hPa West 3.2 km/h 7.4 km/h 85% 0.0 mm CLR
08:55 24.0 °C 21.1 °C 1015.0 hPa West 3.2 km/h 8.0 km/h 84% 0.0 mm CLR
09:00 24.0 °C 20.9 °C 1015.0 hPa West 3.2 km/h 9.7 km/h 83% 0.0 mm CLR
09:05 24.2 °C 21.3 °C 1015.2 hPa WNW 3.2 km/h 9.7 km/h 84% 0.0 mm CLR
09:10 24.3 °C 21.4 °C 1015.2 hPa NW 4.8 km/h 9.7 km/h 84% 0.0 mm CLR
09:15 24.4 °C 21.6 °C 1015.2 hPa NW 4.8 km/h 9.7 km/h 84% 0.0 mm CLR
09:20 24.6 °C 21.7 °C 1015.4 hPa WNW 4.8 km/h 9.7 km/h 84% 0.0 mm CLR
09:25 24.7 °C 21.8 °C 1015.4 hPa WNW 4.8 km/h 8.0 km/h 84% 0.0 mm CLR
09:30 24.9 °C 22.0 °C 1015.4 hPa NW 3.2 km/h 8.0 km/h 84% 0.0 mm CLR
09:35 25.1 °C 22.0 °C 1015.7 hPa NNE 3.2 km/h 12.9 km/h 83% 0.0 mm CLR
09:40 25.2 °C 22.2 °C 1015.7 hPa NE 8.0 km/h 14.5 km/h 83% 0.0 mm CLR
09:45 25.3 °C 22.2 °C 1015.7 hPa NE 8.0 km/h 16.1 km/h 83% 0.0 mm CLR
09:50 25.4 °C 22.1 °C 1015.8 hPa NE 9.7 km/h 17.7 km/h 82% 0.0 mm CLR
09:55 25.6 °C 22.3 °C 1015.8 hPa NE 9.7 km/h 14.5 km/h 82% 0.0 mm CLR
10:00 25.8 °C 22.3 °C 1015.8 hPa ENE 9.7 km/h 22.5 km/h 81% 0.0 mm CLR
10:05 26.2 °C 22.3 °C 1015.8 hPa ENE 9.7 km/h 22.5 km/h 79% 0.0 mm CLR
10:10 26.4 °C 22.1 °C 1015.8 hPa ENE 11.3 km/h 19.3 km/h 77% 0.0 mm CLR
10:15 26.6 °C 22.0 °C 1015.8 hPa ENE 11.3 km/h 22.5 km/h 76% 0.0 mm CLR
10:20 26.5 °C 21.9 °C 1016.1 hPa East 12.9 km/h 29.0 km/h 76% 0.0 mm CLR
10:25 26.4 °C 21.8 °C 1016.1 hPa ENE 12.9 km/h 27.4 km/h 76% 0.0 mm CLR
10:30 26.3 °C 21.7 °C 1016.1 hPa NE 14.5 km/h 38.6 km/h 76% 0.0 mm CLR
10:35 26.2 °C 21.6 °C 1016.3 hPa NE 14.5 km/h 38.6 km/h 76% 0.0 mm CLR
10:40 26.2 °C 21.6 °C 1016.3 hPa ENE 19.3 km/h 33.8 km/h 76% 0.0 mm CLR
10:45 26.3 °C 21.5 °C 1016.3 hPa ENE 19.3 km/h 29.0 km/h 75% 0.0 mm CLR
10:50 26.4 °C 21.6 °C 1016.6 hPa ENE 16.1 km/h 30.6 km/h 75% 0.0 mm CLR
10:55 26.6 °C 21.8 °C 1016.6 hPa ENE 16.1 km/h 25.7 km/h 75% 0.0 mm CLR
11:00 26.4 °C 21.6 °C 1016.6 hPa ENE 14.5 km/h 27.4 km/h 75% 0.0 mm CLR
11:05 26.3 °C 21.5 °C 1016.7 hPa NE 14.5 km/h 32.2 km/h 75% 0.0 mm CLR
11:10 26.2 °C 21.6 °C 1016.7 hPa NE 16.1 km/h 27.4 km/h 76% 0.0 mm CLR
11:15 26.3 °C 21.5 °C 1016.7 hPa NE 16.1 km/h 20.9 km/h 75% 0.0 mm CLR
11:20 26.3 °C 21.5 °C 1016.9 hPa NE 14.5 km/h 27.4 km/h 75% 0.0 mm CLR
11:25 26.3 °C 21.6 °C 1016.9 hPa NE 14.5 km/h 32.2 km/h 75% 0.0 mm CLR
11:30 26.3 °C 21.5 °C 1016.9 hPa NE 19.3 km/h 33.8 km/h 75% 0.0 mm CLR
11:35 26.4 °C 21.4 °C 1016.8 hPa NE 19.3 km/h 25.7 km/h 74% 0.0 mm CLR
11:40 26.4 °C 21.4 °C 1016.8 hPa NE 16.1 km/h 32.2 km/h 74% 0.0 mm CLR
11:45 26.4 °C 21.2 °C 1016.8 hPa NE 16.1 km/h 38.6 km/h 73% 0.0 mm CLR
11:50 26.5 °C 21.3 °C 1016.9 hPa NE 19.3 km/h 29.0 km/h 73% 0.0 mm CLR
11:55 26.7 °C 21.4 °C 1016.9 hPa NE 19.3 km/h 25.7 km/h 73% 0.0 mm CLR
12:00 26.8 °C 21.1 °C 1016.9 hPa NE 12.9 km/h 33.8 km/h 71% 0.0 mm CLR
12:05 27.1 °C 21.2 °C 1017.1 hPa NE 12.9 km/h 22.5 km/h 70% 0.0 mm CLR
12:10 27.3 °C 21.1 °C 1017.1 hPa NE 14.5 km/h 27.4 km/h 69% 0.0 mm CLR
12:15 27.3 °C 20.9 °C 1017.1 hPa NE 14.5 km/h 33.8 km/h 68% 0.0 mm CLR
12:20 27.6 °C 21.2 °C 1017.0 hPa NE 19.3 km/h 25.7 km/h 68% 0.0 mm CLR
12:25 27.8 °C 20.6 °C 1017.0 hPa NE 19.3 km/h 30.6 km/h 65% 0.0 mm CLR
12:30 27.9 °C 20.4 °C 1017.0 hPa ENE 14.5 km/h 25.7 km/h 64% 0.0 mm CLR
12:35 28.0 °C 20.6 °C 1016.9 hPa ENE 14.5 km/h 24.1 km/h 64% 0.0 mm CLR
12:40 27.8 °C 20.6 °C 1016.9 hPa ENE 12.9 km/h 19.3 km/h 65% 0.0 mm CLR
12:45 27.8 °C 20.4 °C 1016.9 hPa NE 12.9 km/h 22.5 km/h 64% 0.0 mm CLR
12:50 27.7 °C 20.3 °C 1016.9 hPa NE 12.9 km/h 24.1 km/h 64% 0.0 mm CLR
12:55 27.6 °C 20.4 °C 1016.9 hPa NE 12.9 km/h 25.7 km/h 65% 0.0 mm CLR
13:00 27.6 °C 19.9 °C 1016.9 hPa NE 14.5 km/h 27.4 km/h 63% 0.0 mm CLR
13:05 27.6 °C 20.7 °C 1016.8 hPa NE 14.5 km/h 24.1 km/h 66% 0.0 mm CLR
13:10 27.6 °C 19.9 °C 1016.8 hPa NE 11.3 km/h 19.3 km/h 63% 0.0 mm CLR
13:15 27.7 °C 21.3 °C 1016.8 hPa NE 11.3 km/h 19.3 km/h 68% 0.0 mm CLR
13:20 27.4 °C 21.7 °C 1016.9 hPa North 8.0 km/h 14.5 km/h 71% 0.0 mm CLR
13:25 26.8 °C 22.3 °C 1016.9 hPa NNW 8.0 km/h 19.3 km/h 76% 0.3 mm RA
13:30 26.3 °C 22.3 °C 1016.9 hPa North 11.3 km/h 16.1 km/h 79% 0.8 mm RA
13:35 25.9 °C 22.4 °C 1017.0 hPa North 11.3 km/h 11.3 km/h 81% 0.0 mm RA
13:40 25.8 °C 22.4 °C 1017.0 hPa North 8.0 km/h 14.5 km/h 82% 0.0 mm RA
13:45 25.6 °C 22.1 °C 1017.0 hPa North 8.0 km/h 19.3 km/h 81% 0.0 mm RA
13:50 25.4 °C 21.7 °C 1017.0 hPa NNE 9.7 km/h 16.1 km/h 80% 1.6 mm RA
13:55 25.3 °C 22.0 °C 1017.0 hPa NNE 9.7 km/h 14.5 km/h 82% 0.3 mm RA
14:00 25.3 °C 22.0 °C 1017.0 hPa NNE 9.7 km/h 16.1 km/h 82% 0.0 mm RA
14:05 25.3 °C 22.0 °C 1016.9 hPa NE 9.7 km/h 17.7 km/h 82% 0.0 mm
14:10 25.3 °C 22.0 °C 1016.9 hPa NE 11.3 km/h 14.5 km/h 82% 0.0 mm
14:15 25.4 °C 22.1 °C 1016.9 hPa NE 11.3 km/h 25.7 km/h 82% 0.0 mm
14:20 25.4 °C 22.1 °C 1016.4 hPa NE 14.5 km/h 25.7 km/h 82% 0.0 mm
14:25 25.4 °C 22.1 °C 1016.4 hPa NNE 14.5 km/h 22.5 km/h 82% 0.2 mm RA
14:30 25.4 °C 22.1 °C 1016.4 hPa NNE 12.9 km/h 17.7 km/h 82% 0.0 mm RA
14:35 25.5 °C 22.0 °C 1016.6 hPa NNE 12.2 km/h 19.8 km/h 81% 3.0 mm CLR
14:40 25.6 °C 21.9 °C 1016.6 hPa NNE 12.9 km/h 20.9 km/h 80% 0.0 mm
14:45 25.8 °C 21.9 °C 1016.6 hPa NE 12.9 km/h 20.9 km/h 79% 0.0 mm
14:50 26.2 °C 21.6 °C 1016.5 hPa NE 12.9 km/h 22.5 km/h 76% 0.0 mm
14:55 26.5 °C 21.5 °C 1016.5 hPa NE 12.2 km/h 25.9 km/h 74% 0.2 mm CLR
15:00 26.7 °C 21.4 °C 1016.5 hPa NE 12.9 km/h 24.1 km/h 73% 0.0 mm
15:05 26.8 °C 21.3 °C 1016.3 hPa ENE 13.0 km/h 24.1 km/h 72% 0.2 mm CLR
15:10 26.8 °C 21.6 °C 1016.3 hPa NE 14.5 km/h 20.9 km/h 73% 0.0 mm
15:15 27.1 °C 21.8 °C 1016.3 hPa NE 14.5 km/h 16.1 km/h 73% 0.0 mm
15:20 27.3 °C 21.8 °C 1016.2 hPa NE 9.7 km/h 19.3 km/h 72% 0.0 mm
15:25 27.2 °C 21.7 °C 1016.2 hPa NE 9.7 km/h 22.5 km/h 72% 0.0 mm CLR
15:30 27.1 °C 21.6 °C 1016.2 hPa NE 11.3 km/h 22.5 km/h 72% 0.0 mm CLR
15:35 27.2 °C 21.7 °C 1016.1 hPa NE 11.3 km/h 19.3 km/h 72% 0.0 mm CLR
15:40 27.4 °C 21.9 °C 1016.1 hPa NE 9.7 km/h 14.5 km/h 72% 0.0 mm CLR
15:45 27.6 °C 21.8 °C 1016.1 hPa NE 9.7 km/h 19.3 km/h 71% 0.0 mm CLR
15:50 27.6 °C 22.1 °C 1015.8 hPa NE 11.3 km/h 19.3 km/h 72% 0.0 mm CLR
15:55 27.6 °C 21.6 °C 1015.8 hPa NE 11.3 km/h 22.5 km/h 70% 0.0 mm CLR
16:00 27.6 °C 21.9 °C 1015.8 hPa NE 12.9 km/h 19.3 km/h 71% 0.0 mm CLR
16:05 27.7 °C 21.9 °C 1015.6 hPa NE 12.9 km/h 16.1 km/h 71% 0.0 mm CLR
16:10 27.8 °C 21.8 °C 1015.6 hPa NE 9.7 km/h 19.3 km/h 70% 0.0 mm CLR
16:15 27.8 °C 21.3 °C 1015.6 hPa NNE 10.0 km/h 16.7 km/h 68% 0.0 mm CLR
16:20 28.1 °C 21.4 °C 1015.5 hPa NE 9.7 km/h 19.3 km/h 67% 0.0 mm CLR
16:25 28.2 °C 21.5 °C 1015.5 hPa NE 9.7 km/h 20.9 km/h 67% 0.0 mm CLR
16:30 28.2 °C 21.3 °C 1015.5 hPa NE 11.3 km/h 16.1 km/h 66% 0.0 mm CLR
16:35 28.3 °C 20.6 °C 1015.4 hPa NE 11.3 km/h 19.3 km/h 63% 0.0 mm CLR
16:40 28.3 °C 20.8 °C 1015.4 hPa NE 9.7 km/h 20.9 km/h 64% 0.0 mm CLR
16:45 28.6 °C 20.9 °C 1015.4 hPa NE 9.7 km/h 19.3 km/h 63% 0.0 mm CLR
16:50 28.6 °C 21.1 °C 1015.1 hPa NE 11.3 km/h 20.9 km/h 64% 0.0 mm CLR
16:55 28.6 °C 20.8 °C 1015.1 hPa NE 11.3 km/h 22.5 km/h 63% 0.0 mm CLR
17:00 28.6 °C 21.1 °C 1015.1 hPa NE 12.9 km/h 20.9 km/h 64% 0.0 mm CLR
17:05 28.8 °C 21.3 °C 1015.1 hPa NE 12.9 km/h 20.9 km/h 64% 0.0 mm CLR
17:10 28.8 °C 21.6 °C 1015.1 hPa NE 11.3 km/h 22.5 km/h 65% 0.0 mm CLR
17:15 28.8 °C 21.1 °C 1015.1 hPa NE 11.3 km/h 22.5 km/h 63% 0.0 mm CLR
17:20 28.8 °C 21.1 °C 1015.4 hPa NE 12.9 km/h 29.0 km/h 63% 0.0 mm CLR
17:25 28.6 °C 21.1 °C 1015.4 hPa NE 12.9 km/h 27.4 km/h 64% 0.0 mm CLR
17:30 28.7 °C 21.4 °C 1015.4 hPa NE 14.5 km/h 20.9 km/h 65% 0.0 mm CLR
17:35 28.7 °C 22.0 °C 1015.3 hPa NE 14.5 km/h 20.9 km/h 67% 0.0 mm CLR
17:40 28.6 °C 21.9 °C 1015.3 hPa NE 12.9 km/h 25.7 km/h 67% 0.0 mm CLR
17:45 28.4 °C 21.7 °C 1015.3 hPa NE 12.9 km/h 20.9 km/h 67% 0.0 mm CLR
17:50 28.4 °C 21.4 °C 1015.3 hPa NE 14.5 km/h 20.9 km/h 66% 0.0 mm CLR
17:55 28.6 °C 21.9 °C 1015.3 hPa NE 14.5 km/h 20.9 km/h 67% 0.0 mm CLR
18:00 28.5 °C 21.8 °C 1015.3 hPa NE 14.5 km/h 27.4 km/h 67% 0.0 mm CLR
18:05 28.3 °C 21.8 °C 1015.1 hPa NE 14.5 km/h 25.7 km/h 68% 0.0 mm CLR
18:10 28.2 °C 21.7 °C 1015.1 hPa NE 16.1 km/h 30.6 km/h 68% 0.0 mm CLR
18:15 27.8 °C 21.6 °C 1015.1 hPa NE 16.1 km/h 30.6 km/h 69% 0.0 mm CLR
18:20 27.7 °C 21.5 °C 1015.0 hPa NE 20.9 km/h 27.4 km/h 69% 0.0 mm CLR
18:25 27.7 °C 21.2 °C 1015.0 hPa NE 20.9 km/h 30.6 km/h 68% 0.0 mm CLR
18:30 27.6 °C 21.2 °C 1015.0 hPa NE 16.1 km/h 27.4 km/h 68% 0.0 mm CLR
18:35 27.5 °C 21.1 °C 1015.0 hPa ENE 16.1 km/h 25.7 km/h 68% 0.0 mm CLR
18:40 27.4 °C 21.2 °C 1015.0 hPa ENE 14.5 km/h 25.7 km/h 69% 0.0 mm CLR
18:45 27.4 °C 20.9 °C 1015.0 hPa ENE 14.5 km/h 25.7 km/h 68% 0.0 mm CLR
18:50 27.4 °C 20.9 °C 1015.0 hPa ENE 11.3 km/h 20.9 km/h 68% 0.0 mm CLR
18:55 27.3 °C 20.9 °C 1015.0 hPa ENE 11.3 km/h 32.2 km/h 68% 0.0 mm CLR
19:00 27.1 °C 20.9 °C 1015.0 hPa NE 14.5 km/h 22.5 km/h 69% 0.0 mm CLR
19:05 27.1 °C 20.9 °C 1015.2 hPa NE 14.5 km/h 25.7 km/h 69% 0.0 mm CLR
19:10 26.9 °C 21.0 °C 1015.2 hPa NE 14.5 km/h 29.0 km/h 70% 0.0 mm CLR
19:15 26.9 °C 21.1 °C 1015.2 hPa NE 14.5 km/h 20.9 km/h 70% 0.0 mm CLR
19:20 26.9 °C 20.9 °C 1015.1 hPa NE 12.9 km/h 27.4 km/h 70% 0.0 mm CLR
19:25 26.8 °C 20.8 °C 1015.1 hPa NE 12.9 km/h 24.1 km/h 70% 0.0 mm CLR
19:30 26.7 °C 20.8 °C 1015.1 hPa NE 12.9 km/h 22.5 km/h 70% 0.0 mm CLR
19:35 26.5 °C 20.6 °C 1015.2 hPa North 13.0 km/h 29.6 km/h 70% 0.0 mm CLR
19:40 26.4 °C 20.5 °C 1015.2 hPa NE 14.5 km/h 29.0 km/h 70% 0.0 mm CLR
19:45 26.3 °C 20.4 °C 1015.2 hPa ENE 14.5 km/h 24.1 km/h 70% 0.0 mm CLR
19:50 26.3 °C 20.2 °C 1015.2 hPa NE 11.3 km/h 25.7 km/h 69% 0.0 mm CLR
19:55 26.2 °C 19.8 °C 1015.2 hPa NE 11.3 km/h 22.5 km/h 68% 0.0 mm CLR
20:00 26.2 °C 19.6 °C 1015.2 hPa NE 12.9 km/h 14.5 km/h 67% 0.0 mm CLR
20:05 26.2 °C 19.6 °C 1015.1 hPa NE 12.9 km/h 17.7 km/h 67% 0.0 mm CLR
20:10 26.1 °C 19.3 °C 1015.1 hPa ENE 8.0 km/h 19.3 km/h 66% 0.0 mm CLR
20:15 26.1 °C 19.0 °C 1015.1 hPa ENE 8.0 km/h 20.9 km/h 65% 0.0 mm CLR
20:20 26.0 °C 19.2 °C 1015.3 hPa ENE 9.7 km/h 19.3 km/h 66% 0.0 mm CLR
20:25 25.9 °C 19.1 °C 1015.3 hPa ENE 9.7 km/h 16.1 km/h 66% 0.0 mm CLR
20:30 25.9 °C 19.1 °C 1015.3 hPa ENE 8.0 km/h 14.5 km/h 66% 0.0 mm CLR
20:35 25.8 °C 18.9 °C 1015.5 hPa ENE 8.0 km/h 12.9 km/h 66% 0.0 mm CLR
20:40 25.8 °C 18.9 °C 1015.5 hPa ENE 8.0 km/h 14.5 km/h 66% 0.0 mm CLR
20:45 25.7 °C 19.1 °C 1015.5 hPa ENE 8.0 km/h 20.9 km/h 67% 0.0 mm CLR
20:50 25.7 °C 19.1 °C 1015.6 hPa ENE 8.0 km/h 11.3 km/h 67% 0.0 mm CLR
20:55 25.7 °C 19.3 °C 1015.6 hPa NE 8.0 km/h 8.0 km/h 68% 0.0 mm CLR
21:00 25.6 °C 19.3 °C 1015.6 hPa NNE 3.2 km/h 8.0 km/h 68% 0.0 mm CLR
21:05 25.5 °C 19.4 °C 1015.8 hPa NNE 3.2 km/h 9.7 km/h 69% 0.0 mm CLR
21:10 25.4 °C 19.6 °C 1015.8 hPa NNE 4.8 km/h 9.7 km/h 70% 0.0 mm CLR
21:15 25.3 °C 19.4 °C 1015.8 hPa NE 4.8 km/h 9.7 km/h 70% 0.0 mm CLR
21:20 25.2 °C 19.6 °C 1016.0 hPa NE 8.0 km/h 9.7 km/h 71% 0.0 mm CLR
21:25 25.1 °C 19.7 °C 1016.0 hPa NE 8.0 km/h 8.0 km/h 72% 0.0 mm CLR
21:30 25.1 °C 19.9 °C 1016.0 hPa NE 4.8 km/h 9.7 km/h 73% 0.0 mm CLR
21:35 25.1 °C 20.1 °C 1016.3 hPa NE 4.8 km/h 9.7 km/h 74% 0.0 mm CLR
21:40 25.0 °C 20.1 °C 1016.3 hPa NE 8.0 km/h 9.7 km/h 74% 0.0 mm CLR
21:45 24.9 °C 20.2 °C 1016.3 hPa NE 6.4 km/h 9.3 km/h 75% 0.0 mm CLR
21:50 24.9 °C 20.2 °C 1016.4 hPa NE 4.8 km/h 8.0 km/h 75% 0.0 mm CLR
21:55 24.9 °C 20.2 °C 1016.4 hPa NE 4.8 km/h 11.3 km/h 75% 0.0 mm CLR
22:00 24.9 °C 20.4 °C 1016.4 hPa NE 8.0 km/h 9.7 km/h 76% 0.0 mm CLR
22:05 24.8 °C 20.3 °C 1016.5 hPa ENE 8.0 km/h 9.7 km/h 76% 0.0 mm CLR
22:10 24.8 °C 20.5 °C 1016.5 hPa ENE 4.8 km/h 9.7 km/h 77% 0.0 mm CLR
22:15 24.7 °C 20.4 °C 1016.5 hPa ENE 4.8 km/h 8.0 km/h 77% 0.0 mm CLR
22:20 24.7 °C 20.4 °C 1016.8 hPa NE 4.8 km/h 8.0 km/h 77% 0.0 mm CLR
22:25 24.7 °C 20.4 °C 1016.8 hPa NE 4.8 km/h 9.7 km/h 77% 0.0 mm CLR
22:30 24.6 °C 20.3 °C 1016.8 hPa NE 4.8 km/h 11.3 km/h 77% 0.0 mm CLR
22:35 24.6 °C 20.3 °C 1017.0 hPa NE 4.8 km/h 11.3 km/h 77% 0.0 mm CLR
22:40 24.6 °C 20.3 °C 1017.0 hPa NNE 8.0 km/h 9.7 km/h 77% 0.0 mm CLR
22:45 24.5 °C 20.4 °C 1017.0 hPa NNE 8.0 km/h 8.0 km/h 78% 0.0 mm CLR
22:50 24.4 °C 20.3 °C 1017.2 hPa NNE 3.2 km/h 9.7 km/h 78% 0.0 mm CLR
22:55 24.4 °C 20.3 °C 1017.2 hPa NNE 3.2 km/h 8.0 km/h 78% 0.0 mm CLR
23:00 24.3 °C 20.2 °C 1017.2 hPa NNE 3.2 km/h 8.0 km/h 78% 0.0 mm CLR
23:05 24.3 °C 20.2 °C 1017.4 hPa NNE 3.2 km/h 9.7 km/h 78% 0.0 mm CLR
23:10 24.3 °C 20.2 °C 1017.4 hPa NNE 3.2 km/h 8.0 km/h 78% 0.0 mm CLR
23:15 24.3 °C 20.2 °C 1017.4 hPa NNE 3.2 km/h 4.8 km/h 78% 0.0 mm CLR
23:20 24.2 °C 20.3 °C 1017.6 hPa North 3.2 km/h 6.4 km/h 79% 0.0 mm CLR
23:25 24.2 °C 20.3 °C 1017.6 hPa North 3.2 km/h 8.0 km/h 79% 0.0 mm CLR
23:30 24.1 °C 20.2 °C 1017.6 hPa NNE 3.2 km/h 8.0 km/h 79% 0.0 mm CLR
23:35 24.1 °C 20.2 °C 1017.8 hPa NE 3.2 km/h 8.0 km/h 79% 0.0 mm CLR
23:40 24.1 °C 20.2 °C 1017.8 hPa NNE 3.2 km/h 8.0 km/h 79% 0.0 mm CLR
23:45 24.0 °C 20.3 °C 1017.8 hPa NNE 3.2 km/h 8.0 km/h 80% 0.0 mm CLR
23:50 24.0 °C 20.3 °C 1017.7 hPa NNE 3.2 km/h 4.8 km/h 80% 0.0 mm CLR
23:55 24.0 °C 20.3 °C 1017.7 hPa NE 3.2 km/h 8.0 km/h 80% 0.0 mm CLR
Murcia-Puente Tocinos, España
Compliments of Weather Underground - 2.75 mb

La estación de MeteoMurcia.com, publica sus datos en los siguientes proyectos:

Weather Underground PWS IMURCIAP2 Meteoclimatic www.awekas.at

W3Counter
Web Analytics